When you browse on this site, cookies collect data to enhance your experience and personalize the content and advertising you see.
Visit our Privacy Policy to learn more. By continuing to use the site, you agree to this use of cookies and data.

Tiempo cada hora Osorno

Hoy, 15 Julio, Miércoles

Tiempo Temperatura Precipitaciones Viento Presión Humedad
00:00 +5°C° 0 mm 0 mps 760 mmHg 98%
01:00 +6°C° 0 mm 1 mps 760 mmHg 98%
02:00 +6°C° 0 mm 1 mps 759 mmHg 98%
03:00 +6°C° 0 mm 1 mps 759 mmHg 98%
04:00 +7°C° 0 mm 1 mps 758 mmHg 98%
05:00 +6°C° 0 mm 0 mps 759 mmHg 98%
06:00 +5°C° 0 mm 0 mps 759 mmHg 98%
07:00 +5°C° 0 mm 0 mps 759 mmHg 98%
08:00 +7°C° 0 mm 0 mps 759 mmHg 97%
09:00 +8°C° 0 mm 0 mps 758 mmHg 96%
10:00 +9°C° 0 mm 0 mps 758 mmHg 95%
11:00 +10°C° 0 mm 0 mps 757 mmHg 94%
12:00 +12°C° 0 mm 1 mps 757 mmHg 93%
13:00 +13°C° 0 mm 1 mps 756 mmHg 92%
14:00 +13°C° 0 mm 1 mps 756 mmHg 93%
15:00 +13°C° 0 mm 1 mps 756 mmHg 95%
16:00 +13°C° 0 mm 1 mps 756 mmHg 96%
17:00 +12°C° 0 mm 1 mps 756 mmHg 96%
18:00 +12°C° 0 mm 1 mps 757 mmHg 97%
19:00 +11°C° 0 mm 1 mps 757 mmHg 97%
20:00 +11°C° 0 mm 1 mps 757 mmHg 97%
21:00 +11°C° 0 mm 1 mps 756 mmHg 97%
22:00 +11°C° 0 mm 1 mps 756 mmHg 97%
23:00 +10°C° 0 mm 1 mps 756 mmHg 98%

Mañana, 16 Julio, Jueves

Tiempo Temperatura Precipitaciones Viento Presión Humedad
00:00 +10°C° 0 mm 1 mps 757 mmHg 98%
01:00 +10°C° 0 mm 1 mps 757 mmHg 98%
02:00 +10°C° 0 mm 1 mps 757 mmHg 98%
03:00 +10°C° 0 mm 1 mps 757 mmHg 98%
04:00 +10°C° 0 mm 1 mps 756 mmHg 97%
05:00 +10°C° 0 mm 1 mps 756 mmHg 97%
06:00 +9°C° 0 mm 2 mps 756 mmHg 96%
07:00 +9°C° 0 mm 2 mps 756 mmHg 96%
08:00 +10°C° 0.1 mm 2 mps 756 mmHg 93%
09:00 +10°C° 0.1 mm 2 mps 756 mmHg 91%
10:00 +12°C° 0.1 mm 2 mps 756 mmHg 88%
11:00 +12°C° 0 mm 2 mps 755 mmHg 85%
12:00 +13°C° 0 mm 2 mps 754 mmHg 82%
13:00 +14°C° 0 mm 2 mps 754 mmHg 79%
14:00 +13°C° 0 mm 2 mps 753 mmHg 79%
15:00 +13°C° 0 mm 2 mps 753 mmHg 80%
16:00 +13°C° 0 mm 2 mps 753 mmHg 80%
17:00 +12°C° 0.8 mm 2 mps 752 mmHg 84%
18:00 +12°C° 0.8 mm 2 mps 752 mmHg 89%
19:00 +10°C° 0.8 mm 2 mps 752 mmHg 93%
20:00 +10°C° 1.8 mm 3 mps 752 mmHg 94%
21:00 +10°C° 1.8 mm 3 mps 752 mmHg 95%
22:00 +10°C° 1.8 mm 3 mps 752 mmHg 95%
23:00 +10°C° 3.3 mm 3 mps 751 mmHg 96%

Pasado mañana, 17 Julio, Viernes

Tiempo Temperatura Precipitaciones Viento Presión Humedad
00:00 +10°C° 3.3 mm 2 mps 751 mmHg 97%
01:00 +10°C° 3.3 mm 2 mps 751 mmHg 98%
02:00 +10°C° 0.7 mm 2 mps 750 mmHg 97%
03:00 +9°C° 0.7 mm 2 mps 750 mmHg 97%
04:00 +9°C° 0.7 mm 3 mps 750 mmHg 96%
05:00 +9°C° 0.3 mm 3 mps 750 mmHg 96%
06:00 +9°C° 0.3 mm 2 mps 750 mmHg 96%
07:00 +9°C° 0.3 mm 2 mps 750 mmHg 96%
08:00 +9°C° 0.3 mm 2 mps 750 mmHg 95%
09:00 +9°C° 0.3 mm 2 mps 750 mmHg 95%
10:00 +9°C° 0.3 mm 3 mps 750 mmHg 94%
11:00 +9°C° 1.3 mm 2 mps 749 mmHg 95%
12:00 +9°C° 1.3 mm 2 mps 749 mmHg 96%
13:00 +9°C° 1.3 mm 2 mps 749 mmHg 96%
14:00 +9°C° 0.2 mm 2 mps 749 mmHg 95%
15:00 +10°C° 0.2 mm 2 mps 749 mmHg 94%
16:00 +10°C° 0.2 mm 2 mps 749 mmHg 93%
17:00 +9°C° 0.1 mm 2 mps 749 mmHg 94%
18:00 +9°C° 0.1 mm 2 mps 750 mmHg 95%
19:00 +8°C° 0.1 mm 2 mps 750 mmHg 97%
20:00 +8°C° 0.1 mm 2 mps 750 mmHg 96%
21:00 +8°C° 0.1 mm 2 mps 750 mmHg 96%
22:00 +8°C° 0.1 mm 2 mps 750 mmHg 96%
23:00 +8°C° 0.4 mm 2 mps 750 mmHg 96%

18 Julio, Sábado

Tiempo Temperatura Precipitaciones Viento Presión Humedad
00:00 +8°C° 0.4 mm 2 mps 750 mmHg 96%
01:00 +9°C° 0.4 mm 3 mps 749 mmHg 95%
02:00 +9°C° 1.9 mm 3 mps 749 mmHg 95%
03:00 +9°C° 1.9 mm 3 mps 749 mmHg 95%
04:00 +8°C° 1.9 mm 4 mps 748 mmHg 95%
05:00 +9°C° 1.2 mm 3 mps 749 mmHg 95%
06:00 +10°C° 1.2 mm 3 mps 749 mmHg 95%
07:00 +10°C° 1.2 mm 3 mps 749 mmHg 94%
08:00 +10°C° 0.6 mm 3 mps 750 mmHg 93%
09:00 +11°C° 0.6 mm 3 mps 750 mmHg 92%
10:00 +11°C° 0.6 mm 3 mps 751 mmHg 91%
11:00 +11°C° 0.6 mm 3 mps 751 mmHg 89%
12:00 +12°C° 0.6 mm 3 mps 751 mmHg 88%
13:00 +12°C° 0.6 mm 3 mps 751 mmHg 87%
14:00 +12°C° 0.4 mm 3 mps 752 mmHg 88%
15:00 +11°C° 0.4 mm 3 mps 752 mmHg 89%
16:00 +10°C° 0.4 mm 2 mps 752 mmHg 91%
17:00 +10°C° 0.1 mm 2 mps 753 mmHg 93%
18:00 +9°C° 0.1 mm 2 mps 753 mmHg 94%
19:00 +9°C° 0.1 mm 2 mps 754 mmHg 96%
20:00 +9°C° 0.3 mm 2 mps 754 mmHg 97%
21:00 +9°C° 0.3 mm 2 mps 754 mmHg 97%
22:00 +9°C° 0.3 mm 2 mps 755 mmHg 97%
23:00 +9°C° 1.3 mm 2 mps 755 mmHg 97%

19 Julio, Domingo

Tiempo Temperatura Precipitaciones Viento Presión Humedad
00:00 +9°C° 1.3 mm 2 mps 755 mmHg 96%
01:00 +9°C° 1.3 mm 3 mps 755 mmHg 95%
02:00 +9°C° 0.4 mm 3 mps 755 mmHg 95%
03:00 +9°C° 0.4 mm 2 mps 755 mmHg 96%
04:00 +9°C° 0.4 mm 2 mps 755 mmHg 96%
05:00 +8°C° 0.1 mm 2 mps 755 mmHg 96%
06:00 +8°C° 0.1 mm 2 mps 755 mmHg 96%
07:00 +8°C° 0.1 mm 2 mps 755 mmHg 97%
08:00 +9°C° 0 mm 2 mps 756 mmHg 94%
09:00 +10°C° 0 mm 2 mps 756 mmHg 92%
10:00 +12°C° 0 mm 2 mps 756 mmHg 90%
11:00 +12°C° 0.2 mm 2 mps 756 mmHg 88%
12:00 +13°C° 0.2 mm 2 mps 756 mmHg 86%
13:00 +13°C° 0.2 mm 2 mps 755 mmHg 84%
14:00 +13°C° 0.4 mm 2 mps 755 mmHg 86%
15:00 +12°C° 0.4 mm 2 mps 755 mmHg 87%
16:00 +10°C° 0.4 mm 2 mps 755 mmHg 89%
17:00 +10°C° 1.2 mm 2 mps 755 mmHg 92%
18:00 +9°C° 1.2 mm 2 mps 755 mmHg 94%
19:00 +9°C° 1.2 mm 2 mps 756 mmHg 97%
20:00 +10°C° 0.2 mm 1 mps 756 mmHg 97%
21:00 +9°C° 0.2 mm 1 mps 756 mmHg 97%
22:00 +9°C° 0.2 mm 1 mps 756 mmHg 98%
23:00 +9°C° 0.2 mm 1 mps 756 mmHg 97%

20 Julio, Lunes

Tiempo Temperatura Precipitaciones Viento Presión Humedad
00:00 +8°C° 0.2 mm 0 mps 756 mmHg 97%
01:00 +8°C° 0.2 mm 0 mps 756 mmHg 97%
02:00 +8°C° 0.7 mm 0 mps 756 mmHg 97%
03:00 +9°C° 0.7 mm 1 mps 756 mmHg 98%
04:00 +9°C° 0.7 mm 1 mps 756 mmHg 98%
05:00 +9°C° 0.4 mm 1 mps 756 mmHg 98%
06:00 +9°C° 0.4 mm 1 mps 756 mmHg 98%
07:00 +9°C° 0.4 mm 1 mps 757 mmHg 98%
08:00 +9°C° 0.2 mm 1 mps 757 mmHg 98%
09:00 +8°C° 0.2 mm 0 mps 757 mmHg 97%
10:00 +9°C° 0.2 mm 0 mps 758 mmHg 96%
11:00 +9°C° 0.1 mm 0 mps 758 mmHg 94%
12:00 +11°C° 0.1 mm 1 mps 758 mmHg 92%
13:00 +12°C° 0.1 mm 1 mps 758 mmHg 90%
14:00 +12°C° 0.5 mm 1 mps 758 mmHg 92%
15:00 +11°C° 0.5 mm 1 mps 758 mmHg 93%
16:00 +11°C° 0.5 mm 1 mps 758 mmHg 95%
17:00 +9°C° 0.2 mm 0 mps 758 mmHg 96%
18:00 +9°C° 0.2 mm 0 mps 758 mmHg 96%
19:00 +8°C° 0.2 mm 0 mps 759 mmHg 97%
20:00 +8°C° 0 mm 0 mps 759 mmHg 97%
21:00 +8°C° 0 mm 0 mps 759 mmHg 97%
22:00 +7°C° 0 mm 0 mps 760 mmHg 97%
23:00 +7°C° 0 mm 0 mps 760 mmHg 98%
Mostrar más